Stations météo

Publicité
Perpignan, France (7747): Température de l'air & dewpoint: 24.03.2020 16:00:00 - 30.03.2020 16:00:00 (CEST)Perpignan, France (7747): Température de l'air 5cm: 24.03.2020 16:00:00 - 30.03.2020 16:00:00 (CEST)Perpignan, France (7747): Température de l'air -20cm & Température de l'air -100cm: 24.03.2020 16:00:00 - 30.03.2020 16:00:00 (CEST)Perpignan, France (7747): Vitesse du vent & gusts: 24.03.2020 16:00:00 - 30.03.2020 16:00:00 (CEST)Perpignan, France (7747): Direction du vent: 24.03.2020 16:00:00 - 30.03.2020 16:00:00 (CEST)Perpignan, France (7747): reduced air pressure: 24.03.2020 16:00:00 - 30.03.2020 16:00:00 (CEST)Perpignan, France (7747): visibility: 24.03.2020 16:00:00 - 30.03.2020 16:00:00 (CEST)Perpignan, France (7747): Quantités de précipitations: 24.03.2020 16:00:00 - 30.03.2020 16:00:00 (CEST)
Date & Time tt [°C] td [°C] tt 5cm [°C] tt -20cm [°C] tt -100cm [°C] ff [km/h] ff [knt] fx [km/h] fx [knt] dd ppp [hPa] vv [km] rr [mm]
30.03.2020 16:00:00 - - - - - - - - - - - - -
30.03.2020 15:00:00 9,5 -0,1 12,5 13,2 13,9 19 11 36 19 WNW 1016,4 55 0,0
30.03.2020 14:00:00 8,7 0,6 9,6 13,2 13,9 22 12 41 22 WNW 1016,7 50 0,0
30.03.2020 13:00:00 7,9 0,1 8,4 13,3 13,9 22 12 40 21 WNW 1017,0 56 0,0
30.03.2020 12:00:00 7,5 0,5 7,6 13,4 13,9 20 11 38 20 WNW 1017,2 58 0,0
30.03.2020 11:00:00 6,8 0,9 5,6 13,4 13,9 14 8 34 19 NW 1017,0 60 0,0
30.03.2020 10:00:00 5,7 1,4 5,1 13,5 13,9 17 9 38 20 NW 1016,6 31 0,0
30.03.2020 09:00:00 6,2 0,9 5,1 13,7 13,9 22 12 41 22 NW 1016,2 20 0,2
30.03.2020 08:00:00 6,5 1,0 5,0 13,8 13,9 5 3 45 24 WNW 1015,8 60 0,0
30.03.2020 07:00:00 6,6 1,5 5,1 13,9 13,9 21 11 49 26 WNW 1015,3 60 0,0
30.03.2020 06:00:00 6,7 2,4 5,3 14,1 13,9 29 16 53 28 WNW 1015,3 50 0,2
30.03.2020 05:00:00 7,4 2,7 5,9 14,2 13,9 25 14 46 25 WNW 1015,4 36 0,0
30.03.2020 04:00:00 7,8 3,5 6,7 14,3 13,8 18 10 37 20 WNW 1015,6 51 0,2
30.03.2020 03:00:00 9,7 3,2 8,8 14,4 13,9 17 9 32 17 NW 1015,7 41 0,0
30.03.2020 02:00:00 10,9 3,7 10,0 14,4 13,8 11 6 35 19 WNW 1015,5 41 0,0
30.03.2020 01:00:00 12,1 3,8 11,4 14,5 13,8 24 13 42 23 NW 1015,5 33 0,0
30.03.2020 00:00:00 13,0 4,9 11,4 14,6 13,8 13 7 26 14 NW 1015,4 19 0,0
29.03.2020 23:00:00 13,5 5,1 12,3 14,6 13,8 18 10 59 32 NW 1014,7 15 0,0
29.03.2020 22:00:00 14,3 5,1 13,2 14,7 13,8 28 15 61 33 NW 1014,4 14 0,0
29.03.2020 21:00:00 14,6 5,4 13,4 14,7 13,8 32 17 59 32 NW 1014,1 13 0,0
29.03.2020 20:00:00 15,2 5,4 14,0 14,7 13,8 37 20 66 36 NW 1013,7 14 0,0
29.03.2020 19:00:00 16,3 5,3 15,8 14,6 13,8 37 20 62 34 NW 1014,0 18 0,0
29.03.2020 18:00:00 17,5 4,8 17,3 14,5 13,8 31 17 61 33 NW 1013,6 20 0,0
29.03.2020 17:00:00 18,0 4,5 18,3 14,3 13,8 32 17 63 34 WNW 1013,7 29 0,0
29.03.2020 16:00:00 18,9 4,3 23,4 14,0 13,8 35 19 61 33 WNW 1013,9 20 0,0
29.03.2020 15:00:00 19,3 4,2 23,8 13,8 13,8 34 18 65 35 WNW 1014,3 20 0,0
29.03.2020 14:00:00 18,8 3,4 23,7 13,6 13,8 35 19 66 35 WNW 1014,9 27 0,0
29.03.2020 13:00:00 18,0 2,3 25,3 13,5 13,8 39 21 67 36 WNW 1015,4 30 0,0
29.03.2020 12:00:00 17,1 2,3 21,0 13,4 13,8 40 21 71 38 WNW 1015,6 34 0,0
29.03.2020 11:00:00 16,1 2,8 19,0 13,4 13,8 35 19 60 33 WNW 1016,1 40 0,0
29.03.2020 10:00:00 15,5 3,0 14,2 13,4 13,8 29 16 54 29 WNW 1016,4 45 0,0
29.03.2020 09:00:00 14,1 2,9 11,5 13,5 13,8 27 14 47 26 WNW 1016,4 27 0,0
29.03.2020 08:00:00 13,0 2,8 6,8 13,6 13,8 27 15 40 22 WNW 1016,2 31 0,0
29.03.2020 07:00:00 13,2 2,1 7,6 13,7 13,8 4 2 33 18 NW 1016,5 32 0,0
29.03.2020 06:00:00 14,0 1,9 11,5 13,7 13,8 18 10 37 20 NW 1016,2 35 0,0
29.03.2020 05:00:00 14,5 1,7 12,7 13,8 13,8 19 10 47 25 NW 1016,4 39 0,0
29.03.2020 04:00:00 14,9 1,7 11,8 13,8 13,8 22 12 43 23 NW 1016,5 42 0,0
29.03.2020 03:00:00 15,3 2,1 12,6 13,9 13,8 16 9 34 19 NW 1016,9 46 0,0
29.03.2020 02:00:00 15,5 1,9 12,7 13,9 13,8 12 6 40 21 NW 1017,3 49 0,0
29.03.2020 01:00:00 15,6 2,0 12,5 14,0 13,8 17 9 35 19 NW 1016,9 50 0,0
29.03.2020 00:00:00 15,6 1,7 13,0 14,1 13,8 16 8 35 19 WNW 1017,0 50 0,0
28.03.2020 23:00:00 15,8 1,9 12,3 14,2 13,8 18 10 33 18 WNW 1017,1 51 0,0
28.03.2020 22:00:00 16,3 1,9 12,0 14,2 13,8 18 10 31 17 NW 1016,6 51 0,0
28.03.2020 21:00:00 16,7 1,9 12,9 14,2 13,8 15 8 45 24 NW 1015,9 54 0,0
28.03.2020 20:00:00 17,9 1,8 14,8 14,1 13,8 21 12 38 21 NW 1015,5 54 0,0
28.03.2020 19:00:00 19,3 2,2 16,4 14,0 13,8 13 7 36 19 NW 1014,9 53 0,0
28.03.2020 18:00:00 20,4 1,8 21,7 13,7 13,8 17 9 29 16 NW 1014,7 54 0,0
28.03.2020 17:00:00 20,4 2,2 24,9 13,6 13,8 13 7 32 17 NNW 1015,0 59 0,0
28.03.2020 16:00:00 19,7 5,0 22,8 13,3 13,8 5 3 15 8 SE 1015,6 21 0,0
28.03.2020 15:00:00 18,4 1,4 22,3 13,1 13,8 10 5 22 12 NNW 1016,1 50 0,0
28.03.2020 14:00:00 18,0 1,9 24,7 12,8 13,8 11 6 27 15 NNW 1016,7 50 0,0
28.03.2020 13:00:00 17,4 1,8 25,1 12,7 13,8 14 8 27 15 NW 1017,2 43 0,0
28.03.2020 12:00:00 16,8 3,1 26,1 12,5 13,8 5 3 15 8 WSW 1017,5 30 0,0
28.03.2020 11:00:00 14,6 2,8 19,3 12,5 13,8 7 4 13 7 WNW 1018,1 45 0,0
28.03.2020 10:00:00 13,6 2,5 13,6 12,5 13,9 2 1 6 4 NE 1017,8 53 0,0
28.03.2020 09:00:00 10,4 4,7 6,2 12,5 13,8 4 2 7 4 W 1017,6 58 0,0
28.03.2020 08:00:00 9,0 3,0 6,0 12,6 13,8 6 3 7 4 W 1017,2 56 0,0
28.03.2020 07:00:00 10,3 2,9 7,7 12,6 13,8 2 1 9 5 W 1016,9 57 0,0
28.03.2020 06:00:00 11,1 2,1 8,8 12,7 13,9 3 2 18 10 SSW 1016,5 60 0,0
28.03.2020 05:00:00 12,2 1,2 8,8 12,7 13,8 11 6 19 11 NW 1016,2 60 0,0
28.03.2020 04:00:00 12,0 1,3 8,3 12,8 13,8 10 5 21 11 NW 1016,4 60 0,0
28.03.2020 03:00:00 12,5 0,9 9,2 12,8 13,9 9 5 22 12 NW 1016,4 60 0,0
28.03.2020 02:00:00 12,6 1,0 9,2 12,9 13,9 12 7 25 14 WNW 1016,3 60 0,0
28.03.2020 01:00:00 12,7 1,4 8,7 12,9 13,9 15 8 24 13 WNW 1016,3 60 0,0
28.03.2020 00:00:00 11,9 1,5 9,0 12,9 13,9 4 2 16 8 W 1016,2 60 0,0
27.03.2020 23:00:00 12,7 1,4 10,3 13,0 13,9 12 6 22 12 W 1016,1 60 0,0
27.03.2020 22:00:00 13,3 1,0 10,4 13,0 13,9 10 6 19 11 NW 1015,7 60 -
27.03.2020 21:00:00 13,5 0,8 11,3 12,9 13,9 11 6 28 15 WNW 1014,9 60 0,0
27.03.2020 20:00:00 13,9 1,2 11,7 12,9 13,9 10 5 20 11 NW 1014,3 60 0,0
27.03.2020 19:00:00 14,5 1,0 13,4 12,8 13,9 13 7 30 16 NW 1013,7 60 0,0
27.03.2020 18:00:00 15,2 1,0 15,7 12,6 14,0 12 6 23 12 NNW 1013,3 60 0,0
27.03.2020 17:00:00 15,6 0,9 18,2 12,4 14,0 14 8 31 17 NNW 1013,1 58 0,0
27.03.2020 16:00:00 15,9 1,2 19,3 12,2 14,0 16 9 35 19 WNW 1013,2 57 0,0
27.03.2020 15:00:00 15,5 1,2 21,9 11,9 14,0 18 10 35 19 NNW 1013,4 51 0,0
27.03.2020 14:00:00 14,8 0,6 22,4 11,6 14,0 19 10 44 24 NW 1013,5 45 0,0
27.03.2020 13:00:00 14,5 2,1 20,3 11,5 14,0 24 13 50 27 WNW 1013,8 37 0,0
27.03.2020 12:00:00 12,7 1,4 16,5 11,4 14,0 30 16 45 24 WNW 1014,0 32 0,0
27.03.2020 11:00:00 10,9 1,7 11,1 11,4 14,0 18 10 40 22 NW 1014,3 46 0,0
27.03.2020 10:00:00 9,7 1,6 8,0 11,5 14,0 18 10 37 20 NW 1014,2 41 0,0
27.03.2020 09:00:00 8,5 1,4 6,7 11,5 14,1 21 12 41 22 WNW 1013,6 54 0,0
27.03.2020 08:00:00 8,1 1,0 5,6 11,6 14,1 25 13 40 21 WNW 1013,4 56 0,0
27.03.2020 07:00:00 7,9 0,8 5,8 11,6 14,1 22 12 46 25 NW 1013,3 51 0,0
27.03.2020 06:00:00 7,9 1,1 5,3 11,7 14,1 25 14 39 21 WNW 1012,9 48 0,0
27.03.2020 05:00:00 7,9 1,5 5,5 11,8 14,1 22 12 40 22 WNW 1012,7 57 0,0
27.03.2020 04:00:00 7,7 2,0 5,2 11,9 14,1 26 14 37 20 WNW 1012,8 44 0,0
27.03.2020 03:00:00 7,1 2,2 5,0 12,0 14,1 17 9 34 18 WNW 1013,3 39 0,0
27.03.2020 02:00:00 6,8 2,7 2,5 12,1 14,1 18 10 31 17 WNW 1013,2 38 0,0
27.03.2020 01:00:00 5,0 2,0 2,1 12,2 14,1 11 6 27 15 W 1013,6 39 0,0
27.03.2020 00:00:00 4,3 2,6 0,3 12,3 14,1 15 8 22 12 WSW 1013,5 41 0,0
26.03.2020 23:00:00 3,6 2,0 0,5 12,4 14,1 9 5 11 6 SW 1014,0 51 0,0
26.03.2020 22:00:00 4,6 2,8 1,0 12,5 14,1 5 3 13 7 WNW 1013,7 59 0,0
26.03.2020 21:00:00 6,1 3,6 2,2 12,5 14,1 8 4 14 7 NNW 1013,4 46 0,0
26.03.2020 20:00:00 7,7 3,4 4,8 12,5 14,1 4 2 13 7 WNW 1012,7 60 0,0
26.03.2020 19:00:00 8,7 3,9 9,3 12,4 14,1 8 4 20 11 W 1012,3 59 0,0
26.03.2020 18:00:00 8,4 3,4 13,3 12,3 14,1 13 7 22 12 W 1012,3 50 0,0
26.03.2020 17:00:00 7,1 3,9 11,8 12,3 14,1 5 3 11 6 W 1012,8 54 0,0
26.03.2020 16:00:00 5,8 4,0 9,3 12,4 14,1 4 2 12 7 NNW 1013,0 51 0,2
26.03.2020 15:00:00 4,8 3,6 4,9 12,5 14,1 9 5 18 10 NNE 1013,0 9 4,2
26.03.2020 14:00:00 4,3 3,1 5,0 12,7 14,1 11 6 24 13 NNW 1013,2 7 4,2
26.03.2020 13:00:00 4,4 3,2 5,2 12,8 14,1 12 7 25 14 N 1012,7 14 3,7
26.03.2020 12:00:00 4,4 3,2 5,4 12,9 14,1 15 8 37 20 N 1012,4 20 2,0
26.03.2020 11:00:00 5,5 4,0 5,6 13,0 14,1 5 3 18 10 N 1011,7 4,6 4,2
26.03.2020 10:00:00 5,8 4,4 5,8 13,2 14,1 14 8 30 16 S 1011,0 9 2,2
26.03.2020 09:00:00 5,9 4,9 5,4 13,3 14,1 9 5 31 17 SSE 1010,8 7 2,2
26.03.2020 08:00:00 5,7 4,7 5,5 13,4 14,1 18 10 39 21 ESE 1010,7 4,5 1,2
26.03.2020 07:00:00 6,2 5,2 5,9 13,5 14,1 17 9 39 21 ESE 1010,1 19 0,2
26.03.2020 06:00:00 6,4 4,7 5,8 13,6 14,1 20 11 42 23 E 1010,3 7 0,6
26.03.2020 05:00:00 6,7 4,5 6,0 13,7 14,1 24 13 41 22 ESE 1011,1 12 0,2
26.03.2020 04:00:00 6,6 3,7 6,0 13,8 14,1 7 4 47 25 NW 1011,8 45 0,0
26.03.2020 03:00:00 6,4 2,7 6,1 13,9 14,1 20 11 46 25 ENE 1012,0 55 0,0
26.03.2020 02:00:00 8,4 3,4 7,2 14,0 14,1 13 7 31 17 N 1011,8 50 0,0
26.03.2020 01:00:00 7,8 3,3 7,1 14,1 14,1 13 7 19 10 W 1011,5 56 0,0
26.03.2020 00:00:00 7,9 3,2 6,6 14,2 14,1 7 4 11 6 WSW 1012,4 42 0,0
25.03.2020 23:00:00 8,1 2,5 6,8 14,3 14,1 6 3 22 12 SSW 1012,6 42 0,0
25.03.2020 22:00:00 8,6 1,9 6,6 14,4 14,1 13 7 26 14 SW 1013,0 56 0,0
25.03.2020 21:00:00 9,7 1,8 7,1 14,5 14,1 14 8 29 16 SSW 1013,4 60 0,0
25.03.2020 20:00:00 10,4 1,7 8,1 14,5 14,1 15 8 28 15 S 1013,1 60 0,0
25.03.2020 19:00:00 11,8 2,8 11,2 14,4 14,1 8 4 29 16 SE 1013,7 56 0,0
25.03.2020 18:00:00 12,0 3,2 14,9 14,2 14,1 21 12 36 19 E 1014,4 58 0,0
25.03.2020 17:00:00 12,6 3,0 15,8 14,0 14,1 23 12 36 20 ESE 1015,1 20 0,0
25.03.2020 16:00:00 12,5 2,6 16,8 13,8 14,1 24 13 41 22 ESE 1015,3 60 0,0
25.03.2020 15:00:00 12,6 3,5 16,8 13,6 14,1 24 13 41 22 ESE 1016,0 60 0,0
25.03.2020 14:00:00 11,5 3,0 16,5 13,4 14,1 25 14 41 22 E 1017,1 60 0,0
25.03.2020 13:00:00 11,6 3,9 15,6 13,2 14,1 28 15 42 23 ESE 1017,6 60 0,0
25.03.2020 12:00:00 12,0 0,4 22,5 13,1 14,1 17 9 28 15 E 1017,7 56 0,0
25.03.2020 11:00:00 12,2 0,3 21,9 13,1 14,1 7 4 16 9 E 1018,3 35 0,0
25.03.2020 10:00:00 9,7 1,1 11,6 13,3 14,1 6 3 11 6 S 1018,6 60 0,0
25.03.2020 09:00:00 6,5 1,8 -0,3 13,4 14,1 6 3 9 5 SW 1018,7 59 0,0
25.03.2020 08:00:00 3,9 0,1 -0,9 13,6 14,1 3 2 7 4 SW 1019,1 60 0,0
25.03.2020 07:00:00 5,5 0,7 1,3 13,7 14,1 5 3 9 5 W 1019,1 60 0,0
25.03.2020 06:00:00 6,1 1,4 4,4 13,8 14,1 5 3 20 11 W 1019,3 60 0,0
25.03.2020 05:00:00 7,4 0,8 6,6 13,9 14,1 15 8 31 17 SW 1019,5 60 0,0
25.03.2020 04:00:00 9,2 -1,0 7,9 14,0 14,1 14 8 36 19 SSW 1020,3 60 0,0
25.03.2020 03:00:00 9,6 -2,1 7,1 14,1 14,1 19 10 32 18 SE 1020,8 60 0,0
25.03.2020 02:00:00 9,8 -0,4 8,9 14,2 14,1 13 7 27 14 ESE 1021,1 60 0,0
25.03.2020 01:00:00 9,9 -0,6 9,3 14,3 14,1 11 6 23 12 ESE 1021,2 60 0,0
25.03.2020 00:00:00 10,1 0,7 9,5 14,3 14,1 12 6 24 13 ESE 1021,4 60 0,0
24.03.2020 23:00:00 10,1 1,2 9,6 14,4 14,1 12 7 22 12 ESE 1021,5 58 0,0
24.03.2020 22:00:00 10,2 1,6 9,6 14,5 14,1 13 7 27 14 ESE 1021,6 56 0,0
24.03.2020 21:00:00 10,1 2,2 9,7 14,5 14,1 13 7 26 14 SE 1021,3 47 0,0
24.03.2020 20:00:00 10,5 2,6 10,2 14,6 14,1 14 7 29 16 ESE 1020,9 46 0,0
24.03.2020 19:00:00 10,8 2,6 10,9 14,6 14,1 19 10 37 20 ESE 1021,2 48 0,0
24.03.2020 18:00:00 11,5 3,3 12,7 14,5 14,1 19 10 40 21 ESE 1021,3 43 0,0
24.03.2020 17:00:00 11,9 3,9 13,1 14,4 14,1 21 12 35 19 E 1021,4 47 0,0
24.03.2020 16:00:00 - - - - - - - - - - - - -

tt = Température de l'air
td = dewpoint
tt 5cm = Température de l'air 5cm
tt -20cm = Température de l'air -20cm
tt -100cm = Température de l'air -100cm
ff = Vitesse du vent
fx = gusts
dd = Direction du vent
ppp = reduced air pressure
vv = visibility
rr = Quantités de précipitations

stations d'obs. à proximité